WXForecasting.com
Aberdeen, SD - Weather Station Data
 
Daily Summary for January 23, 2018 Units:  English    Metric   Both
« Previous Day
Next Day »
Daily Weekly Monthly Yearly Custom
  Current: High: Low: Average:
Temperature: 21.8 °F 22.6 °F 19.8 °F 21 °F
Dew Point: 19.0 °F 20.0 °F 17.0 °F 18.1 °F
Humidity: 88 % 89 % 88 % 88 %
Wind Speed: 4.0 mph 8.0 mph 0.0 mph 2.4 mph
Wind Gust: 4.0 mph 11.0 mph - -
Wind:SW - - West
Pressure: 30.19 in 30.19 in 30.14 in -
Precipitation: 0.00 in      
Historical Graphs
 
 
Tabular Data for January 23, 2018
Time Temperature Dew Point Pressure Wind Wind Speed Wind Gust Humidity Rainfall Rate (Hourly) solar Conditions
00:01 22.5 °F 20.0 °F 30.15 in North 6.0 mph 11.0 mph 88 % 0.00 in 0 W/m2
00:16 22.6 °F 20.0 °F 30.15 in North 8.0 mph 8.0 mph 88 % 0.00 in 0 W/m2
00:31 22.4 °F 19.0 °F 30.15 in NNW 4.0 mph 10.0 mph 88 % 0.00 in 0 W/m2
01:01 22.3 °F 19.0 °F 30.15 in NNW 6.0 mph 8.0 mph 88 % 0.00 in 0 W/m2
01:16 22.3 °F 19.0 °F 30.14 in NNE 7.0 mph 9.0 mph 88 % 0.00 in 0 W/m2
01:46 22.2 °F 19.0 °F 30.15 in NW 8.0 mph 10.0 mph 88 % 0.00 in 0 W/m2
02:01 22.0 °F 19.0 °F 30.16 in NNW 4.0 mph 8.0 mph 88 % 0.00 in 0 W/m2
02:16 22.1 °F 19.0 °F 30.16 in NNW 2.0 mph 5.0 mph 89 % 0.00 in 0 W/m2
02:31 22.0 °F 19.0 °F 30.16 in NNW 5.0 mph 6.0 mph 88 % 0.00 in 0 W/m2
02:46 21.8 °F 19.0 °F 30.16 in NNW 3.0 mph 8.0 mph 88 % 0.00 in 0 W/m2
03:01 21.7 °F 19.0 °F 30.17 in Calm   4.0 mph 88 % 0.00 in 0 W/m2
03:16 21.5 °F 19.0 °F 30.17 in WNW 1.0 mph 4.0 mph 88 % 0.00 in 0 W/m2
03:31 21.3 °F 18.0 °F 30.17 in NNW 4.0 mph 8.0 mph 88 % 0.00 in 0 W/m2
03:46 21.2 °F 18.0 °F 30.18 in Calm   8.0 mph 88 % 0.00 in 0 W/m2
04:16 20.6 °F 18.0 °F 30.17 in Calm   3.0 mph 88 % 0.00 in 0 W/m2
04:31 20.6 °F 18.0 °F 30.17 in North 1.0 mph 8.0 mph 88 % 0.00 in 0 W/m2
04:46 20.7 °F 18.0 °F 30.16 in Calm   3.0 mph 88 % 0.00 in 0 W/m2
05:01 20.6 °F 18.0 °F 30.17 in NNW 1.0 mph 5.0 mph 88 % 0.00 in 0 W/m2
05:16 20.5 °F 18.0 °F 30.16 in Calm   5.0 mph 88 % 0.00 in 0 W/m2
05:31 20.3 °F 17.0 °F 30.17 in WNW 2.0 mph 3.0 mph 88 % 0.00 in 0 W/m2
05:46 20.4 °F 17.0 °F 30.17 in WNW 1.0 mph 3.0 mph 88 % 0.00 in 0 W/m2
06:01 20.3 °F 17.0 °F 30.16 in Calm   2.0 mph 88 % 0.00 in 0 W/m2
06:16 20.2 °F 17.0 °F 30.17 in WNW 2.0 mph 3.0 mph 88 % 0.00 in 0 W/m2
06:31 20.0 °F 17.0 °F 30.16 in West 3.0 mph 5.0 mph 88 % 0.00 in 0 W/m2
06:46 19.8 °F 17.0 °F 30.17 in Calm   2.0 mph 88 % 0.00 in 0 W/m2
07:01 20.0 °F 17.0 °F 30.17 in WSW 1.0 mph 5.0 mph 88 % 0.00 in 0 W/m2
07:16 19.9 °F 17.0 °F 30.18 in WSW 4.0 mph 9.0 mph 88 % 0.00 in 0 W/m2
07:31 19.9 °F 17.0 °F 30.18 in WSW 2.0 mph 3.0 mph 88 % 0.00 in 0 W/m2
07:46 20.2 °F 17.0 °F 30.17 in WSW 4.0 mph 7.0 mph 88 % 0.00 in 0 W/m2
08:01 19.9 °F 17.0 °F 30.17 in Calm   3.0 mph 88 % 0.00 in 0 W/m2
08:16 20.2 °F 17.0 °F 30.17 in Calm   2.0 mph 88 % 0.00 in 9 W/m2
08:31 20.5 °F 18.0 °F 30.18 in Calm   5.0 mph 88 % 0.00 in 18 W/m2
08:46 20.7 °F 18.0 °F 30.18 in WSW 1.0 mph 4.0 mph 88 % 0.00 in 30 W/m2
09:01 20.9 °F 18.0 °F 30.18 in Calm   2.0 mph 88 % 0.00 in 33 W/m2
09:16 21.2 °F 18.0 °F 30.18 in WSW 2.0 mph 4.0 mph 88 % 0.00 in 37 W/m2
09:31 21.5 °F 19.0 °F 30.19 in WSW 1.0 mph 5.0 mph 88 % 0.00 in 33 W/m2
09:46 21.8 °F 19.0 °F 30.19 in SW 4.0 mph 4.0 mph 88 % 0.00 in 44 W/m2
Compliments of Weather Underground - 512 kb